�N����,�����b,�ŏ������i�x�j,���ϕ����i�x�j,�ő啗���i�x�j,�ŏ�����(m/s),���ϕ���(m/s),�ő啗��(m/s),�C��(���j,���x�i���j,�C��(hPa),�~�J��(mm),�~�J����(�b�j,�~�J���x(mm/h),�~�Ђ傤��(hit/���u),�~�Ђ傤����(�b�j,�~�Ђ傤���x(hit/���uh),�q�[�^���x(���j,�q�[�^�[�d���iV),�d���d���iV),�Q�Ɠd���iV)
2010/01/01,00:00:01,177,353,174,0.2,9.1,21.3,14.1,58.8,1013.1,0.00,0,0.0,0.0,0,0.0,13.2,0.0,12.0,3.476
2010/01/01,00:10:01,180,350,158,1.3,9.0,20.9,14.0,54.9,1013.0,0.00,0,0.0,0.0,0,0.0,13.2,0.0,11.6,3.474
2010/01/01,00:20:01,179,354,173,0.6,8.9,23.2,13.9,55.8,1013.2,0.00,0,0.0,0.0,0,0.0,13.4,0.0,11.8,3.475
2010/01/01,00:30:01,176,351,167,0.3,8.7,19.8,13.9,48.2,1013.1,0.00,0,0.0,0.0,0,0.0,13.0,0.0,11.7,3.474
2010/01/01,00:40:01,186,357,168,0.2,9.3,21.1,13.9,48.2,1013.2,0.00,0,0.0,0.0,0,0.0,13.0,0.0,11.7,3.476
2010/01/01,00:50:01,181,353,165,0.5,9.1,20.5,13.9,49.5,1013.2,0.00,0,0.0,0.0,0,0.0,13.2,0.0,11.7,3.474
2010/01/01,01:00:01,186,347,145,0.2,8.8,19.5,13.8,50.1,1013.0,0.00,0,0.0,0.0,0,0.0,12.7,0.0,11.7,3.474
2010/01/01,01:10:01,183,353,151,0.5,8.5,20.0,14.0,53.2,1012.8,0.00,0,0.0,0.0,0,0.0,13.2,0.0,11.7,3.474
2010/01/01,01:20:01,185,351,144,0.5,8.4,20.4,14.0,52.3,1013.0,0.00,0,0.0,0.0,0,0.0,13.2,0.0,11.6,3.475
2010/01/01,01:30:01,165,331,143,0.1,7.9,17.8,13.8,52.2,1012.9,0.00,0,0.0,0.0,0,0.0,13.0,0.0,11.8,3.474
2010/01/01,01:40:01,189,334,141,0.3,7.8,17.9,14.1,60.0,1012.8,0.00,0,0.0,0.0,0,0.0,13.2,0.0,11.7,3.475
2010/01/01,01:50:01,183,352,146,0.6,8.1,19.9,13.9,59.1,1012.8,0.00,0,0.0,0.0,0,0.0,13.0,0.0,11.6,3.475
2010/01/01,02:00:01,152,327,142,0.4,8.0,18.5,13.8,58.7,1012.5,0.00,0,0.0,0.0,0,0.0,13.2,0.0,11.8,3.474
2010/01/01,02:10:01,159,335,154,0.2,7.8,19.2,14.0,59.3,1012.5,0.00,0,0.0,0.0,0,0.0,12.7,0.0,11.8,3.474
2010/01/01,02:20:01,178,351,138,0.4,8.2,19.4,14.1,58.7,1012.4,0.00,0,0.0,0.0,0,0.0,13.2,0.0,11.8,3.474
2010/01/01,02:30:01,172,346,165,0.2,7.9,19.7,14.1,57.5,1012.4,0.00,0,0.0,0.0,0,0.0,13.2,0.0,11.7,3.475
2010/01/01,02:40:01,186,348,159,0.4,7.9,18.5,14.0,56.7,1012.3,0.00,0,0.0,0.0,0,0.0,13.0,0.0,11.7,3.474
2010/01/01,02:50:01,186,349,160,1.1,8.2,20.0,14.0,55.2,1012.3,0.00,0,0.0,0.0,0,0.0,13.0,0.0,11.8,3.475
2010/01/01,03:00:01,186,347,160,0.6,8.4,20.8,14.0,52.9,1012.3,0.00,0,0.0,0.0,0,0.0,13.0,0.0,11.7,3.476
2010/01/01,03:10:01,188,351,158,0.2,8.4,21.1,14.0,54.0,1012.3,0.00,0,0.0,0.0,0,0.0,13.5,0.0,11.8,3.474
2010/01/01,03:20:01,165,341,158,0.2,7.8,20.2,14.1,51.4,1012.2,0.00,0,0.0,0.0,0,0.0,13.5,0.0,11.7,3.474
2010/01/01,03:30:01,173,350,159,0.2,8.2,19.8,13.9,51.5,1012.3,0.00,0,0.0,0.0,0,0.0,13.2,0.0,11.8,3.474
2010/01/01,03:40:01,182,352,161,0.2,8.6,19.7,13.9,50.3,1012.2,0.00,0,0.0,0.0,0,0.0,13.0,0.0,11.7,3.475
2010/01/01,03:50:01,198,350,158,0.2,8.1,19.0,14.0,49.5,1012.1,0.00,0,0.0,0.0,0,0.0,13.0,0.0,11.8,3.475
2010/01/01,04:00:01,196,348,140,0.5,8.4,19.0,14.0,53.6,1012.2,0.00,0,0.0,0.0,0,0.0,12.8,0.0,11.6,3.476
2010/01/01,04:10:01,181,352,143,0.2,8.3,19.4,14.0,51.5,1012.3,0.00,0,0.0,0.0,0,0.0,12.8,0.0,11.7,3.475
2010/01/01,04:20:01,164,336,145,0.2,8.1,19.0,13.8,49.7,1012.4,0.00,0,0.0,0.0,0,0.0,12.7,0.0,12.0,3.474
2010/01/01,04:30:01,188,338,147,0.2,8.2,20.1,14.0,50.3,1012.4,0.00,0,0.0,0.0,0,0.0,12.8,0.0,11.7,3.475
2010/01/01,04:40:01,170,342,160,0.3,7.8,20.2,14.1,53.7,1012.3,0.00,0,0.0,0.0,0,0.0,13.0,0.0,11.6,3.474
2010/01/01,04:50:01,180,339,154,0.4,7.8,20.0,14.0,52.0,1012.3,0.00,0,0.0,0.0,0,0.0,12.8,0.0,11.8,3.475
2010/01/01,05:00:01,192,347,160,0.3,8.1,22.5,14.1,48.1,1012.3,0.00,0,0.0,0.0,0,0.0,13.0,0.0,11.7,3.475
2010/01/01,05:10:01,182,344,162,0.1,7.8,18.5,14.3,48.7,1012.3,0.00,0,0.0,0.0,0,0.0,13.0,0.0,11.8,3.475
2010/01/01,05:20:01,184,356,169,0.1,8.4,21.4,14.1,52.6,1012.2,0.00,0,0.0,0.0,0,0.0,13.0,0.0,11.8,3.474
2010/01/01,05:30:01,172,347,144,0.7,8.0,19.3,14.1,53.8,1012.3,0.00,0,0.0,0.0,0,0.0,13.2,0.0,11.7,3.475
2010/01/01,05:40:01,198,345,156,0.3,7.5,17.5,14.1,54.8,1012.4,0.00,0,0.0,0.0,0,0.0,13.2,0.0,11.6,3.473
2010/01/01,05:50:01,187,350,169,0.2,7.6,17.5,14.3,55.6,1012.5,0.00,0,0.0,0.0,0,0.0,13.4,0.0,11.7,3.474
2010/01/01,06:00:01,194,1,179,0.1,8.0,20.6,14.3,57.8,1012.5,0.00,0,0.0,0.0,0,0.0,13.5,0.0,11.8,3.474
2010/01/01,06:10:01,189,3,173,0.2,8.3,19.2,14.4,53.3,1012.6,0.00,0,0.0,0.0,0,0.0,13.7,0.0,11.6,3.474
2010/01/01,06:20:01,189,3,181,0.1,7.7,18.8,14.5,53.9,1012.7,0.00,0,0.0,0.0,0,0.0,13.7,0.0,11.7,3.474
2010/01/01,06:30:01,184,356,161,0.1,7.6,18.5,14.5,52.8,1012.8,0.00,0,0.0,0.0,0,0.0,13.5,0.0,11.8,3.474
2010/01/01,06:40:01,172,353,160,0.3,7.5,16.3,14.5,50.6,1012.9,0.00,0,0.0,0.0,0,0.0,13.5,0.0,11.7,3.474
2010/01/01,06:50:01,200,352,145,0.6,7.6,17.5,14.6,49.7,1013.0,0.00,0,0.0,0.0,0,0.0,13.7,0.0,11.8,3.474
2010/01/01,07:00:01,186,352,154,0.3,7.3,17.3,14.6,51.7,1013.0,0.00,0,0.0,0.0,0,0.0,13.7,0.0,11.7,3.473
2010/01/01,07:10:01,199,357,154,0.2,7.5,18.4,14.5,51.8,1013.0,0.00,0,0.0,0.0,0,0.0,13.7,0.0,11.7,3.476
2010/01/01,07:20:01,194,7,160,0.2,7.4,18.2,14.4,53.5,1013.1,0.00,0,0.0,0.0,0,0.0,13.5,0.0,11.7,3.475
2010/01/01,07:30:01,178,355,168,0.1,7.5,18.2,14.5,54.5,1013.2,0.00,0,0.0,0.0,0,0.0,13.5,0.0,11.6,3.475
2010/01/01,07:40:01,185,356,167,0.2,7.5,20.0,14.5,55.5,1013.2,0.00,0,0.0,0.0,0,0.0,13.4,0.0,11.6,3.474
2010/01/01,07:50:01,189,2,141,0.9,7.8,19.0,14.5,56.1,1013.4,0.00,0,0.0,0.0,0,0.0,13.7,0.0,11.7,3.474
2010/01/01,08:00:01,185,1,155,0.6,8.3,20.5,14.5,55.5,1013.4,0.00,0,0.0,0.0,0,0.0,13.7,0.0,11.7,3.474
2010/01/01,08:10:01,192,6,145,1.0,9.1,20.1,14.5,54.9,1013.5,0.00,0,0.0,0.0,0,0.0,13.7,0.0,11.8,3.475
2010/01/01,08:20:01,192,5,182,0.2,8.6,20.7,14.5,53.9,1013.6,0.00,0,0.0,0.0,0,0.0,13.9,0.0,11.7,3.474
2010/01/01,08:30:01,197,5,181,0.2,9.1,20.6,14.5,53.5,1013.7,0.00,0,0.0,0.0,0,0.0,13.9,0.0,11.6,3.474
2010/01/01,08:40:01,194,8,158,0.6,7.9,18.8,14.6,52.4,1013.8,0.00,0,0.0,0.0,0,0.0,14.0,0.0,11.7,3.475
2010/01/01,08:50:01,187,5,183,0.3,8.2,19.8,14.9,53.6,1013.9,0.00,0,0.0,0.0,0,0.0,14.2,0.0,11.6,3.474
2010/01/01,09:00:01,193,355,156,0.4,8.1,17.9,14.9,50.4,1013.9,0.00,0,0.0,0.0,0,0.0,14.7,0.0,11.7,3.474
2010/01/01,09:10:01,179,343,144,0.3,7.8,20.3,14.9,50.4,1014.0,0.00,0,0.0,0.0,0,0.0,14.7,0.0,11.8,3.474
2010/01/01,09:20:01,191,7,178,0.2,7.5,17.9,14.8,49.4,1014.1,0.00,0,0.0,0.0,0,0.0,14.5,0.0,11.8,3.475
2010/01/01,09:30:01,191,1,140,0.8,7.5,18.0,14.9,47.3,1014.2,0.00,0,0.0,0.0,0,0.0,14.5,0.0,11.8,3.473
2010/01/01,09:40:01,201,339,155,0.4,7.2,18.3,15.1,48.6,1014.1,0.00,0,0.0,0.0,0,0.0,15.0,0.0,11.8,3.474
2010/01/01,09:50:01,184,352,165,0.5,8.0,18.5,15.0,53.5,1014.0,0.00,0,0.0,0.0,0,0.0,14.9,0.0,12.0,3.475
2010/01/01,10:00:01,128,303,127,0.1,7.2,21.1,15.5,53.4,1014.1,0.00,0,0.0,0.0,0,0.0,16.2,0.0,11.6,3.474
2010/01/01,10:10:01,110,285,107,0.2,7.1,19.1,15.3,52.6,1014.2,0.00,0,0.0,0.0,0,0.0,16.2,0.0,11.6,3.474
2010/01/01,10:20:01,90,266,76,0.3,7.4,17.7,15.0,52.4,1014.2,0.00,0,0.0,0.0,0,0.0,15.4,0.0,12.0,3.475
2010/01/01,10:30:01,59,236,56,0.3,7.3,21.0,15.1,56.6,1014.1,0.00,0,0.0,0.0,0,0.0,15.4,0.0,12.0,3.473
2010/01/01,10:40:01,56,234,54,0.2,8.0,19.3,15.0,54.7,1014.0,0.00,0,0.0,0.0,0,0.0,15.0,0.0,12.0,3.474
2010/01/01,10:50:01,55,236,53,0.5,7.8,18.9,15.0,53.5,1013.9,0.00,0,0.0,0.0,0,0.0,15.2,0.0,11.8,3.474
2010/01/01,11:00:01,57,236,51,0.3,7.7,19.1,14.9,53.3,1013.8,0.00,0,0.0,0.0,0,0.0,15.4,0.0,11.9,3.475
2010/01/01,11:10:01,69,246,62,0.7,6.8,20.5,15.3,52.4,1013.8,0.00,0,0.0,0.0,0,0.0,16.7,0.0,11.7,3.473
2010/01/01,11:20:01,63,240,54,0.5,6.1,17.8,15.5,49.4,1013.7,0.00,0,0.0,0.0,0,0.0,16.9,0.0,11.7,3.473
2010/01/01,11:30:01,70,251,69,0.3,7.5,18.5,15.2,48.5,1013.6,0.00,0,0.0,0.0,0,0.0,16.4,0.0,11.9,3.474
2010/01/01,11:40:01,62,237,58,0.3,6.6,17.4,15.3,49.9,1013.5,0.00,0,0.0,0.0,0,0.0,16.0,0.0,11.7,3.474
2010/01/01,11:50:01,62,236,29,0.1,4.9,15.9,15.9,48.9,1013.4,0.00,0,0.0,0.0,0,0.0,18.0,0.0,11.9,3.473
2010/01/01,12:00:01,62,241,60,0.2,5.8,17.3,16.1,44.3,1013.3,0.00,0,0.0,0.0,0,0.0,18.6,0.0,12.0,3.473
2010/01/01,12:10:01,63,243,61,0.2,5.9,16.9,16.0,44.3,1013.0,0.00,0,0.0,0.0,0,0.0,18.2,0.0,11.9,3.474
2010/01/01,12:20:01,70,238,40,0.1,6.2,15.2,16.1,45.4,1012.9,0.00,0,0.0,0.0,0,0.0,18.2,0.0,11.9,3.473
2010/01/01,12:30:01,72,233,29,0.2,5.7,15.7,16.1,46.9,1012.7,0.00,0,0.0,0.0,0,0.0,18.6,0.0,12.0,3.473
2010/01/01,12:40:01,71,235,48,0.1,5.7,15.4,16.2,46.9,1012.5,0.00,0,0.0,0.0,0,0.0,18.7,0.0,12.0,3.472
2010/01/01,12:50:01,72,242,30,0.2,5.7,15.9,16.3,45.0,1012.4,0.00,0,0.0,0.0,0,0.0,19.1,0.0,11.6,3.473
2010/01/01,13:00:01,61,233,29,0.1,5.9,15.6,16.2,43.7,1012.3,0.00,0,0.0,0.0,0,0.0,18.4,0.0,11.9,3.473
2010/01/01,13:10:01,67,233,42,0.1,5.3,16.1,16.4,45.9,1012.2,0.00,0,0.0,0.0,0,0.0,18.9,0.0,11.9,3.473
2010/01/01,13:20:01,60,241,42,0.1,5.8,16.0,16.3,47.1,1012.1,0.00,0,0.0,0.0,0,0.0,18.7,0.0,11.9,3.472
2010/01/01,13:30:01,65,232,30,0.1,5.2,18.1,16.2,44.2,1012.1,0.00,0,0.0,0.0,0,0.0,18.7,0.0,11.9,3.473
2010/01/01,13:40:01,63,227,37,0.2,4.9,14.2,16.5,46.3,1011.9,0.00,0,0.0,0.0,0,0.0,19.2,0.0,11.7,3.473
2010/01/01,13:50:01,66,231,30,0.1,4.9,14.5,16.3,46.7,1011.8,0.00,0,0.0,0.0,0,0.0,19.1,0.0,11.7,3.473
2010/01/01,14:00:01,62,228,33,0.5,5.2,17.3,16.3,48.5,1011.7,0.00,0,0.0,0.0,0,0.0,18.4,0.0,12.0,3.474
2010/01/01,14:10:01,62,225,44,0.1,5.0,14.9,16.3,46.8,1011.7,0.00,0,0.0,0.0,0,0.0,18.6,0.0,11.9,3.473
2010/01/01,14:20:01,65,229,32,0.2,4.9,14.6,16.2,45.6,1011.7,0.00,0,0.0,0.0,0,0.0,18.7,0.0,11.9,3.473
2010/01/01,14:30:01,65,226,29,0.3,5.1,14.7,16.2,46.3,1011.6,0.00,0,0.0,0.0,0,0.0,18.6,0.0,11.9,3.472
2010/01/01,14:40:01,65,228,37,0.1,5.3,13.9,16.3,46.7,1011.6,0.00,0,0.0,0.0,0,0.0,18.7,0.0,12.0,3.473
2010/01/01,14:50:01,65,233,30,0.2,5.6,14.5,16.1,46.8,1011.4,0.00,0,0.0,0.0,0,0.0,18.7,0.0,11.9,3.473
2010/01/01,15:00:01,61,223,31,0.0,5.6,14.1,16.3,47.0,1011.5,0.00,0,0.0,0.0,0,0.0,18.2,0.0,11.9,3.474
2010/01/01,15:10:01,65,230,31,0.0,5.4,15.9,16.0,45.9,1011.5,0.00,0,0.0,0.0,0,0.0,18.2,0.0,11.9,3.473
2010/01/01,15:20:01,58,224,32,0.1,5.2,14.5,16.0,48.8,1011.6,0.00,0,0.0,0.0,0,0.0,18.0,0.0,11.9,3.473
2010/01/01,15:30:01,62,223,30,1.5,4.8,18.0,15.7,48.9,1011.4,0.00,0,0.0,0.0,0,0.0,17.4,0.0,11.7,3.474
2010/01/01,15:40:01,67,226,29,0.1,6.0,15.4,15.4,50.0,1011.5,0.00,0,0.0,0.0,0,0.0,16.5,0.0,11.7,3.474
2010/01/01,15:50:01,62,227,38,0.2,6.1,17.3,15.4,49.5,1011.6,0.00,0,0.0,0.0,0,0.0,16.2,0.0,11.7,3.473
2010/01/01,16:00:01,64,217,30,0.1,6.4,15.0,15.2,51.6,1011.6,0.00,0,0.0,0.0,0,0.0,15.7,0.0,11.9,3.474
2010/01/01,16:10:01,64,219,29,0.2,5.9,16.0,15.4,51.4,1011.5,0.00,0,0.0,0.0,0,0.0,16.0,0.0,11.6,3.474
2010/01/01,16:20:01,65,232,41,0.2,6.9,16.0,15.0,51.3,1011.6,0.00,0,0.0,0.0,0,0.0,15.4,0.0,11.9,3.473
2010/01/01,16:30:01,63,234,31,0.0,7.2,15.8,14.8,50.7,1011.7,0.00,0,0.0,0.0,0,0.0,14.9,0.0,12.0,3.474
2010/01/01,16:40:01,68,223,31,0.2,6.7,15.8,15.0,50.4,1011.8,0.00,0,0.0,0.0,0,0.0,15.2,0.0,11.9,3.474
2010/01/01,16:50:01,66,220,32,0.0,6.7,14.9,15.0,48.4,1011.9,0.00,0,0.0,0.0,0,0.0,15.2,0.0,11.9,3.476
2010/01/01,17:00:01,66,229,31,0.0,7.2,16.0,14.7,49.4,1012.0,0.00,0,0.0,0.0,0,0.0,14.4,0.0,11.7,3.474
2010/01/01,17:10:01,74,222,27,0.0,7.6,15.4,14.7,50.3,1012.0,0.00,0,0.0,0.0,0,0.0,14.0,0.0,11.7,3.475
2010/01/01,17:20:01,67,227,35,0.2,7.5,16.8,14.6,49.5,1012.0,0.00,0,0.0,0.0,0,0.0,13.9,0.0,11.7,3.475
2010/01/01,17:30:01,40,219,35,0.0,7.3,16.8,14.6,50.3,1012.1,0.00,0,0.0,0.0,0,0.0,13.5,0.0,11.8,3.474
2010/01/01,17:40:01,69,211,26,0.2,7.3,15.7,14.5,48.3,1012.2,0.00,0,0.0,0.0,0,0.0,13.5,0.0,11.7,3.476
2010/01/01,17:50:01,65,218,35,0.0,7.2,15.3,14.5,49.8,1012.4,0.00,0,0.0,0.0,0,0.0,13.2,0.0,11.7,3.474
2010/01/01,18:00:01,66,232,41,0.0,7.5,16.1,14.5,50.8,1012.5,0.00,0,0.0,0.0,0,0.0,13.4,0.0,11.7,3.476
2010/01/01,18:10:01,52,226,33,0.1,7.4,17.1,14.5,50.4,1012.6,0.00,0,0.0,0.0,0,0.0,13.4,0.0,11.8,3.475
2010/01/01,18:20:01,72,225,41,0.0,7.6,15.9,14.5,48.7,1012.6,0.00,0,0.0,0.0,0,0.0,13.4,0.0,11.6,3.475
2010/01/01,18:30:01,61,223,26,0.1,7.5,16.1,14.5,48.5,1012.6,0.00,0,0.0,0.0,0,0.0,13.2,0.0,11.6,3.474
2010/01/01,18:40:01,67,243,32,0.1,7.8,15.6,14.5,53.3,1012.7,0.00,0,0.0,0.0,0,0.0,13.2,0.0,11.7,3.473
2010/01/01,18:50:01,78,230,35,0.0,7.6,14.5,14.6,53.1,1012.7,0.00,0,0.0,0.0,0,0.0,13.4,0.0,11.7,3.476
2010/01/01,19:00:01,62,244,60,0.5,7.3,16.6,14.5,54.6,1012.8,0.00,0,0.0,0.0,0,0.0,13.7,0.0,11.7,3.474
2010/01/01,19:10:01,58,231,40,0.1,7.4,17.2,14.6,52.6,1013.0,0.00,0,0.0,0.0,0,0.0,13.5,0.0,11.7,3.474
2010/01/01,19:20:01,69,251,68,2.1,7.6,16.0,14.5,55.9,1013.0,0.00,0,0.0,0.0,0,0.0,13.4,0.0,11.6,3.474
2010/01/01,19:30:01,67,246,63,0.4,7.5,16.0,14.4,52.8,1013.0,0.00,0,0.0,0.0,0,0.0,13.5,0.0,11.8,3.474
2010/01/01,19:40:01,66,229,35,0.2,7.5,15.7,14.5,52.4,1013.0,0.00,0,0.0,0.0,0,0.0,13.4,0.0,11.7,3.474
2010/01/01,19:50:01,71,243,36,0.2,7.8,16.4,14.3,52.4,1013.0,0.00,0,0.0,0.0,0,0.0,13.2,0.0,11.7,3.475
2010/01/01,20:00:01,67,213,32,0.2,7.1,16.8,14.5,51.3,1013.1,0.00,0,0.0,0.0,0,0.0,13.2,0.0,11.8,3.474
2010/01/01,20:10:01,70,250,63,1.7,7.8,17.0,14.3,52.9,1013.0,0.00,0,0.0,0.0,0,0.0,13.2,0.0,11.8,3.475
2010/01/01,20:20:01,69,225,29,0.2,7.4,15.4,14.3,50.3,1013.0,0.00,0,0.0,0.0,0,0.0,13.0,0.0,11.7,3.474
2010/01/01,20:30:01,66,248,63,0.1,7.7,16.3,14.2,49.8,1013.0,0.00,0,0.0,0.0,0,0.0,12.8,0.0,11.7,3.474
2010/01/01,20:40:01,63,242,61,0.3,7.4,16.4,14.1,53.6,1013.0,0.00,0,0.0,0.0,0,0.0,12.7,0.0,11.8,3.475
2010/01/01,20:50:01,67,244,65,0.1,6.6,16.5,14.1,51.9,1013.2,0.00,0,0.0,0.0,0,0.0,12.8,0.0,11.9,3.474
2010/01/01,21:00:01,59,240,48,0.1,7.0,17.7,14.2,52.3,1013.2,0.00,0,0.0,0.0,0,0.0,12.8,0.0,11.8,3.474
2010/01/01,21:10:01,65,238,40,0.2,7.2,15.9,14.2,53.4,1013.3,0.00,0,0.0,0.0,0,0.0,12.8,0.0,11.7,3.474
2010/01/01,21:20:01,68,223,36,2.6,7.4,15.4,14.4,52.5,1013.4,0.00,0,0.0,0.0,0,0.0,12.8,0.0,11.8,3.474
2010/01/01,21:30:01,67,242,50,0.1,7.4,16.3,14.2,53.7,1013.4,0.00,0,0.0,0.0,0,0.0,13.0,0.0,11.7,3.474
2010/01/01,21:40:01,69,245,66,0.1,7.5,15.3,14.2,54.5,1013.3,0.00,0,0.0,0.0,0,0.0,13.0,0.0,11.8,3.475
2010/01/01,21:50:01,65,242,40,0.0,6.6,16.2,14.0,54.7,1013.4,0.00,0,0.0,0.0,0,0.0,12.7,0.0,11.9,3.475
2010/01/01,22:00:01,62,238,40,0.1,7.4,15.9,14.2,54.3,1013.3,0.00,0,0.0,0.0,0,0.0,12.7,0.0,11.9,3.475
2010/01/01,22:10:01,65,244,34,0.1,7.5,15.6,14.2,52.1,1013.3,0.00,0,0.0,0.0,0,0.0,12.8,0.0,12.0,3.475
2010/01/01,22:20:01,65,239,36,0.1,7.3,15.3,14.1,51.3,1013.3,0.00,0,0.0,0.0,0,0.0,12.5,0.0,11.9,3.475
2010/01/01,22:30:01,64,243,31,0.1,7.5,15.7,14.1,52.1,1013.2,0.00,0,0.0,0.0,0,0.0,12.7,0.0,11.9,3.475
2010/01/01,22:40:01,47,215,43,0.1,6.4,14.7,14.0,52.0,1013.2,0.00,0,0.0,0.0,0,0.0,12.7,0.0,12.0,3.474
2010/01/01,22:50:01,27,133,273,0.0,3.5,13.7,13.2,54.0,1013.2,0.00,0,0.0,0.0,0,0.0,12.0,0.0,12.0,3.474
2010/01/01,23:00:01,339,145,276,0.0,5.9,14.4,13.4,52.9,1013.2,0.00,0,0.0,0.0,0,0.0,11.7,0.0,11.8,3.475
2010/01/01,23:10:01,336,137,272,0.1,5.5,14.2,13.7,52.8,1013.2,0.00,0,0.0,0.0,0,0.0,12.0,0.0,11.9,3.475
2010/01/01,23:20:01,338,135,272,0.0,1.6,12.9,13.2,54.0,1013.0,0.00,0,0.0,0.0,0,0.0,11.7,0.0,11.9,3.476
2010/01/01,23:30:01,340,139,306,0.0,5.8,14.4,13.4,53.8,1012.8,0.00,0,0.0,0.0,0,0.0,11.7,0.0,11.9,3.475
2010/01/01,23:40:01,337,137,276,0.0,5.0,14.0,13.5,52.2,1012.8,0.00,0,0.0,0.0,0,0.0,11.7,0.0,11.9,3.475
2010/01/01,23:50:01,347,122,275,0.1,2.1,13.6,13.1,54.2,1012.7,0.00,0,0.0,0.0,0,0.0,11.7,0.0,11.7,3.476
2010/01/02,00:00:01,340,136,275,0.0,2.7,12.8,13.2,55.7,1012.7,0.00,0,0.0,0.0,0,0.0,11.7,0.0,11.7,3.475
2010/01/02,00:10:01,342,147,275,0.0,5.6,13.6,13.5,55.4,1012.8,0.00,0,0.0,0.0,0,0.0,11.7,0.0,11.8,3.474
2010/01/02,00:20:01,17,175,343,0.0,2.1,12.8,13.0,57.3,1012.7,0.00,0,0.0,0.0,0,0.0,11.7,0.0,11.9,3.475
2010/01/02,00:30:01,25,152,268,0.1,1.1,7.5,13.3,57.0,1012.6,0.00,0,0.0,0.0,0,0.0,12.0,0.0,12.0,3.475
2010/01/02,00:40:01,25,129,268,0.1,1.4,7.3,13.3,58.1,1012.4,0.00,0,0.0,0.0,0,0.0,12.2,0.0,12.0,3.474
2010/01/02,00:50:01,27,131,272,0.0,1.7,7.4,13.0,59.0,1012.2,0.00,0,0.0,0.0,0,0.0,12.2,0.0,12.0,3.474
2010/01/02,01:00:01,343,129,281,0.0,2.8,13.8,13.4,57.8,1012.1,0.00,0,0.0,0.0,0,0.0,12.0,0.0,11.9,3.475
2010/01/02,01:10:01,344,142,294,0.1,3.2,15.0,13.5,57.2,1012.1,0.00,0,0.0,0.0,0,0.0,12.3,0.0,12.0,3.476
2010/01/02,01:20:01,25,131,275,0.0,2.1,13.2,13.6,55.7,1012.1,0.00,0,0.0,0.0,0,0.0,12.3,0.0,11.8,3.474
2010/01/02,01:30:01,346,142,273,0.1,1.5,13.8,13.7,55.9,1012.1,0.00,0,0.0,0.0,0,0.0,12.2,0.0,11.9,3.474
2010/01/02,01:40:01,27,131,274,0.1,1.8,7.1,13.6,54.8,1012.1,0.00,0,0.0,0.0,0,0.0,12.3,0.0,12.0,3.475
2010/01/02,01:50:01,341,142,270,0.1,1.4,9.9,13.5,56.8,1012.1,0.00,0,0.0,0.0,0,0.0,12.3,0.0,11.8,3.474
2010/01/02,02:00:01,343,143,279,0.1,3.0,13.9,13.8,55.6,1012.1,0.00,0,0.0,0.0,0,0.0,12.7,0.0,11.9,3.474
2010/01/02,02:10:01,29,128,274,0.2,1.7,7.4,13.5,56.8,1011.9,0.00,0,0.0,0.0,0,0.0,12.5,0.0,11.9,3.474
2010/01/02,02:20:01,344,144,274,0.1,2.6,13.2,13.6,53.5,1011.8,0.00,0,0.0,0.0,0,0.0,12.3,0.0,12.0,3.475
2010/01/02,02:30:01,339,136,272,0.0,4.0,13.5,13.8,53.7,1011.7,0.00,0,0.0,0.0,0,0.0,12.7,0.0,12.0,3.474
2010/01/02,02:40:01,342,143,272,0.0,1.7,9.8,13.6,54.3,1011.7,0.00,0,0.0,0.0,0,0.0,12.2,0.0,11.9,3.476
2010/01/02,02:50:01,25,154,270,0.1,1.4,7.1,13.5,55.1,1011.7,0.00,0,0.0,0.0,0,0.0,12.2,0.0,12.0,3.475
2010/01/02,03:00:01,35,129,267,0.4,1.2,6.6,13.5,55.1,1011.5,0.00,0,0.0,0.0,0,0.0,12.3,0.0,12.0,3.475
2010/01/02,03:10:01,29,145,219,0.3,0.9,6.5,13.8,53.0,1011.6,0.00,0,0.0,0.0,0,0.0,12.5,0.0,12.0,3.475
2010/01/02,03:20:01,26,143,233,0.3,1.2,6.5,13.6,55.2,1011.4,0.00,0,0.0,0.0,0,0.0,12.7,0.0,11.8,3.475
2010/01/02,03:30:01,343,134,272,0.1,1.5,10.0,13.8,54.4,1011.5,0.00,0,0.0,0.0,0,0.0,12.7,0.0,11.8,3.474
2010/01/02,03:40:01,343,156,274,0.1,2.0,12.9,13.9,55.1,1011.4,0.00,0,0.0,0.0,0,0.0,12.5,0.0,11.9,3.474
2010/01/02,03:50:01,26,155,244,0.3,1.2,7.5,13.8,55.6,1011.1,0.00,0,0.0,0.0,0,0.0,12.7,0.0,11.7,3.476
2010/01/02,04:00:01,35,149,220,0.2,1.2,7.4,13.7,56.4,1011.1,0.00,0,0.0,0.0,0,0.0,12.7,0.0,11.8,3.474
2010/01/02,04:10:01,26,159,254,0.1,1.2,7.6,14.1,54.9,1011.2,0.00,0,0.0,0.0,0,0.0,13.2,0.0,11.7,3.474
2010/01/02,04:20:01,13,165,255,0.2,1.0,7.1,14.3,53.6,1011.1,0.00,0,0.0,0.0,0,0.0,13.2,0.0,11.8,3.474
2010/01/02,04:30:01,21,163,274,0.1,1.1,8.4,14.3,52.7,1011.2,0.00,0,0.0,0.0,0,0.0,13.2,0.0,11.7,3.475
2010/01/02,04:40:01,13,174,260,0.1,0.7,6.6,14.4,51.4,1011.2,0.00,0,0.0,0.0,0,0.0,13.4,0.0,11.8,3.474
2010/01/02,04:50:01,30,152,237,0.3,1.0,6.5,14.3,53.5,1011.0,0.00,0,0.0,0.0,0,0.0,13.4,0.0,11.7,3.475
2010/01/02,05:00:01,31,146,236,0.3,1.2,6.6,14.0,53.9,1010.9,0.00,0,0.0,0.0,0,0.0,13.2,0.0,11.8,3.474
2010/01/02,05:10:01,25,158,238,0.3,0.8,6.4,14.3,50.4,1011.2,0.00,0,0.0,0.0,0,0.0,13.2,0.0,11.7,3.476
2010/01/02,05:20:01,26,168,325,0.2,1.0,6.8,14.5,50.4,1011.2,0.00,0,0.0,0.0,0,0.0,13.4,0.0,11.7,3.475
2010/01/02,05:30:01,17,152,238,0.2,1.2,7.6,14.1,53.1,1010.9,0.00,0,0.0,0.0,0,0.0,13.4,0.0,11.6,3.474
2010/01/02,05:40:01,33,154,256,0.4,1.1,6.7,14.4,50.3,1010.8,0.00,0,0.0,0.0,0,0.0,13.4,0.0,11.8,3.475
2010/01/02,05:50:01,13,158,245,0.2,1.2,7.1,14.4,51.4,1010.8,0.00,0,0.0,0.0,0,0.0,13.4,0.0,11.7,3.474
2010/01/02,06:00:01,25,156,264,0.1,1.2,7.3,14.4,51.1,1011.0,0.00,0,0.0,0.0,0,0.0,13.4,0.0,11.6,3.475
2010/01/02,06:10:01,29,153,256,0.2,1.1,6.9,14.5,50.1,1011.2,0.00,0,0.0,0.0,0,0.0,13.5,0.0,11.8,3.474
2010/01/02,06:20:01,17,150,242,0.2,1.2,6.8,14.5,49.1,1011.2,0.00,0,0.0,0.0,0,0.0,13.7,0.0,11.7,3.474
2010/01/02,06:30:01,21,148,257,0.3,1.2,6.8,14.5,47.7,1011.2,0.00,0,0.0,0.0,0,0.0,13.7,0.0,11.8,3.473
2010/01/02,06:40:01,30,138,215,0.5,1.4,6.9,14.2,48.1,1011.2,0.00,0,0.0,0.0,0,0.0,13.5,0.0,11.8,3.474
2010/01/02,06:50:01,29,134,203,0.4,1.4,6.9,14.3,46.6,1011.1,0.00,0,0.0,0.0,0,0.0,13.5,0.0,11.8,3.475
2010/01/02,07:00:01,29,143,237,0.3,1.2,6.8,14.2,49.1,1011.2,0.00,0,0.0,0.0,0,0.0,13.4,0.0,11.8,3.475
2010/01/02,07:10:01,30,152,258,0.2,1.2,10.8,14.4,47.7,1011.3,0.00,0,0.0,0.0,0,0.0,13.4,0.0,11.8,3.475
2010/01/02,07:20:01,31,150,323,0.3,1.2,7.0,14.5,47.3,1011.2,0.00,0,0.0,0.0,0,0.0,13.7,0.0,11.8,3.474
2010/01/02,07:30:01,30,163,264,0.2,1.1,6.8,14.9,41.6,1011.3,0.00,0,0.0,0.0,0,0.0,13.7,0.0,11.8,3.474
2010/01/02,07:40:01,26,154,243,0.2,1.1,7.5,14.8,41.5,1011.4,0.00,0,0.0,0.0,0,0.0,14.0,0.0,11.7,3.474
2010/01/02,07:50:01,29,151,246,0.3,1.0,6.6,14.9,43.3,1011.6,0.00,0,0.0,0.0,0,0.0,14.0,0.0,11.7,3.475
2010/01/02,08:00:01,27,162,252,0.2,0.8,6.7,15.1,45.2,1011.5,0.00,0,0.0,0.0,0,0.0,14.2,0.0,11.8,3.474
2010/01/02,08:10:01,29,138,235,0.3,1.1,6.4,14.8,49.0,1011.4,0.00,0,0.0,0.0,0,0.0,14.4,0.0,11.7,3.473
2010/01/02,08:20:01,32,134,204,0.4,1.3,6.7,14.9,51.6,1011.4,0.00,0,0.0,0.0,0,0.0,14.4,0.0,11.7,3.475
2010/01/02,08:30:01,25,137,270,0.2,1.3,6.9,15.1,52.3,1011.7,0.00,0,0.0,0.0,0,0.0,14.5,0.0,11.7,3.475
2010/01/02,08:40:01,31,124,274,0.4,1.3,7.8,15.1,52.8,1011.8,0.00,0,0.0,0.0,0,0.0,14.7,0.0,11.7,3.475
2010/01/02,08:50:01,25,119,267,0.2,1.4,7.6,15.3,53.6,1011.8,0.00,0,0.0,0.0,0,0.0,15.0,0.0,12.0,3.474
2010/01/02,09:00:01,29,121,269,0.2,1.4,6.9,15.4,55.2,1011.6,0.00,0,0.0,0.0,0,0.0,15.2,0.0,12.0,3.474
2010/01/02,09:10:01,326,114,272,0.2,2.6,7.4,16.0,52.4,1012.0,0.00,0,0.0,0.0,0,0.0,16.7,0.0,11.7,3.474
2010/01/02,09:20:01,25,128,269,0.2,1.7,7.3,16.0,53.5,1011.8,0.00,0,0.0,0.0,0,0.0,16.5,0.0,11.7,3.473
2010/01/02,09:30:01,322,131,268,0.1,2.0,8.3,16.2,52.4,1011.3,0.00,0,0.0,0.0,0,0.0,16.9,0.0,11.6,3.474
2010/01/02,09:40:01,308,125,303,0.1,2.8,10.6,17.0,47.4,1011.5,0.00,0,0.0,0.0,0,0.0,18.4,0.0,12.0,3.473
2010/01/02,09:50:01,308,123,289,0.2,2.9,13.0,17.3,48.6,1011.9,0.00,0,0.0,0.0,0,0.0,19.4,0.0,11.7,3.472
2010/01/02,10:00:01,318,123,277,0.1,3.2,13.3,17.5,46.5,1011.9,0.00,0,0.0,0.0,0,0.0,19.7,0.0,11.7,3.473
2010/01/02,10:10:01,300,117,272,0.0,2.9,8.9,17.8,46.1,1011.9,0.00,0,0.0,0.0,0,0.0,20.6,0.0,11.7,3.472
2010/01/02,10:20:01,301,122,287,0.1,3.0,11.2,18.0,47.0,1011.7,0.00,0,0.0,0.0,0,0.0,20.6,0.0,11.7,3.472
2010/01/02,10:30:01,302,124,297,0.1,3.9,9.4,18.1,46.8,1011.8,0.00,0,0.0,0.0,0,0.0,20.7,0.0,11.7,3.472
2010/01/02,10:40:01,319,135,317,0.1,3.7,9.7,18.3,48.7,1011.5,0.00,0,0.0,0.0,0,0.0,20.6,0.0,11.7,3.472
2010/01/02,10:50:01,308,119,294,0.1,3.9,10.7,18.4,46.6,1011.7,0.00,0,0.0,0.0,0,0.0,21.2,0.0,11.7,3.473
2010/01/02,11:00:01,315,128,270,0.1,2.8,9.0,17.9,51.8,1011.4,0.00,0,0.0,0.0,0,0.0,19.6,0.0,11.7,3.473
2010/01/02,11:10:01,322,134,274,0.1,3.0,9.6,17.9,51.6,1011.1,0.00,0,0.0,0.0,0,0.0,19.4,0.0,11.7,3.472
2010/01/02,11:20:01,306,121,276,0.1,3.0,9.0,18.1,52.4,1010.9,0.00,0,0.0,0.0,0,0.0,19.9,0.0,11.6,3.473
2010/01/02,11:30:01,313,115,290,0.0,3.0,14.5,18.5,52.6,1010.8,0.00,0,0.0,0.0,0,0.0,20.2,0.0,11.8,3.472
2010/01/02,11:40:01,317,124,290,0.1,3.4,9.8,18.2,52.9,1011.0,0.00,0,0.0,0.0,0,0.0,20.2,0.0,11.7,3.473
2010/01/02,11:50:01,14,155,326,0.1,4.2,11.8,18.1,52.6,1010.4,0.00,0,0.0,0.0,0,0.0,19.6,0.0,11.8,3.473
2010/01/02,12:00:01,17,147,326,0.2,4.1,14.4,18.3,51.9,1010.3,0.00,50,0.0,0.0,0,0.0,20.1,0.0,11.7,3.472
2010/01/02,12:10:01,305,121,292,0.1,3.9,10.2,18.5,52.0,1010.2,0.00,0,0.0,0.0,0,0.0,20.6,0.0,11.7,3.472
2010/01/02,12:20:01,313,118,275,0.1,3.3,13.5,18.6,49.9,1009.9,0.00,0,0.0,0.0,0,0.0,20.9,0.0,11.8,3.472
2010/01/02,12:30:01,11,152,326,0.1,4.6,10.5,18.6,49.3,1009.6,0.00,0,0.0,0.0,0,0.0,20.6,0.0,11.6,3.472
2010/01/02,12:40:01,13,145,326,0.1,4.3,10.1,18.8,48.3,1009.6,0.00,0,0.0,0.0,0,0.0,20.7,0.0,11.7,3.470
2010/01/02,12:50:01,349,147,327,0.1,3.7,8.7,18.7,49.2,1009.4,0.00,0,0.0,0.0,0,0.0,20.6,0.0,11.7,3.472
2010/01/02,13:00:01,0,172,325,0.0,5.6,12.1,18.5,50.3,1009.4,0.00,0,0.0,0.0,0,0.0,19.6,0.0,11.7,3.473
2010/01/02,13:10:01,1,169,324,0.2,5.3,12.3,18.3,50.7,1009.1,0.00,0,0.0,0.0,0,0.0,19.2,0.0,11.7,3.473
2010/01/02,13:20:01,14,155,326,0.3,4.4,11.9,18.4,52.5,1008.9,0.00,0,0.0,0.0,0,0.0,20.1,0.0,11.7,3.470
2010/01/02,13:30:01,17,154,326,0.1,5.4,10.3,19.3,50.4,1008.8,0.00,0,0.0,0.0,0,0.0,21.4,0.0,12.0,3.473
2010/01/02,13:40:01,1,163,327,0.2,5.1,11.0,18.6,51.0,1008.7,0.00,0,0.0,0.0,0,0.0,20.6,0.0,11.7,3.472
2010/01/02,13:50:01,14,155,323,0.1,3.7,11.8,18.5,53.6,1008.7,0.00,0,0.0,0.0,0,0.0,19.6,0.0,11.6,3.472
2010/01/02,14:00:01,13,176,319,0.1,4.6,11.4,18.0,55.5,1008.6,0.00,0,0.0,0.0,0,0.0,18.4,0.0,11.9,3.473
2010/01/02,14:10:01,355,154,325,0.0,3.1,10.5,18.0,58.1,1008.5,0.00,0,0.0,0.0,0,0.0,18.0,0.0,11.7,3.472
2010/01/02,14:20:01,20,137,269,0.1,1.9,8.8,17.9,58.6,1008.3,0.00,0,0.0,0.0,0,0.0,18.2,0.0,11.8,3.473
2010/01/02,14:30:01,324,136,288,0.1,2.0,11.7,18.0,58.7,1008.2,0.07,50,0.0,0.0,0,0.0,18.2,0.0,11.8,3.473
2010/01/02,14:40:01,322,140,293,0.0,2.1,12.3,18.0,59.3,1008.2,0.00,0,0.0,0.0,0,0.0,18.2,0.0,11.9,3.473